Location: Kawakawa
(35.3830°S, 174.0670°E)
Time: 10:39:27
(UTC+13:00)

Explorer 7 - Pass Details

Date: 19 December 2019
Orbit: 485 x 679 km, 50.3° (Epoch: 17 January)

Event Time Altitude Azimuth Distance (km) Brightness Sun altitude
Rises 00:14:54 0° 351° (N) 2,777 - -29.2°
Reaches altitude 10° 00:17:55 10° 13° (NNE) 1,843 - -29.4°
Maximum altitude 00:20:29 16° 51° (NE) 1,477 - -29.6°
Drops below altitude 10° 00:22:59 10° 89° (E) 1,788 - -29.7°
Sets 00:25:50 0° 111° (ESE) 2,649 - -29.8°
